STARLINK-5739 (55571 NORAD) Tracking and Keplerian Element Data

This shows tracking and keplerian element data for the satellite.

Feedback or suggestion? Click here.




ElementValue
Catalog55571
NameSTARLINK-5739
Epoch Orbit130
Epoch Day84.91667824
Epoch Year2023
RAAN112.2315
Inclination42.9962
Eccentricity0.0001274
Argument of Perigee261.8595
Mean Anonmoly278.3394
Mean Motion15.06010412
Decay Rate-0.01167138
L11 55571U 23020C 23084.91667824 -.01167138 00000+0 -85735-1 0 9997
L22 55571 42.9962 112.2315 0001274 261.8595 278.3394 15.06010412 1302



Live tracking and technical data element details for STARLINK-5739 (NORAD 55571). STARLINK-5739 can be tracked NOW for your location showing map with azimuth and elevation plus other details from your city location.







IsCatalogInMostPopularTable: catalog: 55571, numindb: -1

Insert: records affected: 1


GetName: 55571 STARLINK-5739

Hit Count: inserted at: Tue, 28 Mar 2023 03:17:39 GMT